Flag for India Weather past 2 weeks in Varanasi, Uttar Pradesh, India

Now
90 °F

Scattered clouds.


Feels Like: 103 °F
Forecast: 78 / 92 °F
Wind: 6 mph from North

Location: Varanasi / Babatpur

Current Time: Aug 2, 2015 at 11:50:45 AM

Latest Report: Aug 2, 2015 at 11:00 AM


Visibility: 4 mi

Pressure: 29.71 "Hg

Humidity: 67%

Dew point: 77 °F

Location of VaranasiLocation

Historic Weather in Varanasi — Graph

°F

Varanasi temperature yesterday

Maximum temperature yesterday: 90 °F (at 2:00 PM)
Minimum temperature yesterday: 77 °F (at 5:00 AM)
Average temperature yesterday: 82 °F

Past Weeks' High & Low Weather Summary

 TemperatureHumidityPressure
High99 °F (Jul 27, 4:00 PM)100% (Jul 23, 11:00 PM)29.71 "Hg (Jul 23, 11:00 PM)
Low77 °F (Jul 26, 6:00 AM)45% (Jul 23, 4:00 AM)29.39 "Hg (Jul 19, 4:00 PM)
Average87 °F76%29.56 "Hg
* Reported Jul 18 10:00 AM — Aug 2 10:00 AM, Varanasi, Weather by CustomWeather, © 2015

Note: Actual official high and low records may vary slightly from our data, if they occured in-between our weather recording intervals... More about our weather records

Advertising

Varanasi weather history for previous 24 hours

 ConditionsComfort  
Time TempWeatherWind HumidityBarometerVisibility
10:00 AM
Sun, Aug 2
88 °FBroken clouds.3 mph70%29.71 "Hg4 mi
9:00 AM86 °FScattered clouds.6 mph79%29.71 "Hg3 mi
8:00 AM82 °FScattered clouds.No wind79%29.71 "Hg3 mi
7:00 AM81 °FBroken clouds.No wind84%29.68 "Hg3 mi
6:00 AM79 °FBroken clouds.No wind89%29.68 "Hg2 mi
5:00 AM79 °FPartly cloudy.No wind94%29.65 "Hg2 mi
12:00 AM81 °FPartly cloudy.No wind89%29.71 "Hg2 mi
11:00 PM
Sat, Aug 1
79 °FPartly cloudy.No wind94%29.71 "Hg2 mi
10:00 PM82 °FPartly cloudy.No wind84%29.68 "Hg2 mi
9:00 PM84 °FPartly cloudy.No wind79%29.65 "Hg2 mi
8:00 PM84 °FPartly cloudy.No wind79%29.65 "Hg2 mi
7:00 PM84 °FBroken clouds.No wind79%29.62 "Hg2 mi
6:00 PM84 °FBroken clouds.No wind84%29.62 "Hg3 mi
4:00 PM86 °FBroken clouds.2 mph79%29.62 "Hg4 mi
3:00 PM86 °FBroken clouds.3 mph79%29.65 "Hg4 mi
2:00 PM90 °FBroken clouds.8 mph67%29.68 "Hg4 mi
1:00 PM88 °FBroken clouds.No wind70%29.71 "Hg4 mi
12:00 PM84 °FBroken clouds.No wind79%29.71 "Hg3 mi
11:00 AM88 °FBroken clouds.No wind70%29.71 "Hg3 mi
Weather by CustomWeather, © 2015

See weather overviewHow to use our weather pages